Theta_e
303 301 300 299 299 299 299 295 293 289 288 288 287 287 287 286 286 286 286 285 285 284 284 284 283 283 282 281 281 280 279 279 278 278 278 279 279 279 278 278 279 279 278
302 299 298 300 299 297 294 293 290 288 287 287 287 286 286 286 286 286 285 285 285 285 284 283 283 282 282 281 280 280 279 278 277 276 277 278 278 278 278 278 278 277 276
299 297 295 297 297 295 292 291 288 287 287 286 286 286 286 286 285 285 285 285 285 285 284 284 283 283 282 281 281 280 279 278 277 276 276 277 277 278 278 278 277 276 275
298 296 295 295 295 293 293 290 288 287 287 286 286 285 285 285 285 285 285 285 284 284 284 283 283 283 282 282 281 280 279 278 277 277 277 277 277 277 277 277 277 275 275
295 294 293 296 294 292 290 289 287 286 286 286 285 285 285 285 285 284 285 285 285 284 284 283 283 283 282 282 281 280 279 278 278 277 277 277 277 277 276 276 275 275 275
293 293 292 292 290 289 288 287 286 285 285 285 284 284 284 284 284 284 284 284 286 284 284 283 283 283 283 282 281 280 280 280 279 278 277 276 277 277 277 276 275 274 274
292 292 292 291 289 288 287 286 286 286 285 284 284 284 284 284 284 284 285 285 285 284 284 283 283 283 282 281 280 280 281 281 280 280 279 278 277 277 277 276 275 274 273
290 290 290 289 288 287 286 285 285 284 285 284 284 283 283 284 284 285 284 288 285 283 283 283 283 282 282 281 280 280 279 279 279 279 278 278 277 277 277 276 275 274 273
289 288 288 288 287 286 285 284 284 284 284 284 284 284 283 283 284 290 284 289 284 283 282 282 282 282 281 280 280 279 279 279 279 278 278 278 278 279 279 276 275 272 270
288 287 288 288 287 286 285 285 284 284 284 284 283 283 284 284 289 290 284 288 283 283 283 282 282 282 281 281 279 279 278 279 278 278 278 278 278 277 277 276 273 271 269
288 288 287 287 287 286 285 285 285 284 284 283 283 284 288 284 291 288 284 288 284 282 282 283 283 282 281 280 280 280 280 279 279 278 278 278 277 276 275 274 272 270 269
288 287 287 287 286 286 286 285 285 285 284 284 285 288 286 284 290 288 284 287 283 282 282 283 282 282 281 280 280 280 280 280 280 280 279 278 277 276 275 273 271 270 269
287 287 287 286 286 286 286 286 285 285 284 286 286 285 284 285 287 287 287 284 283 283 283 283 282 281 280 279 280 280 280 280 279 279 278 278 277 276 274 272 270 269 268
287 287 287 287 286 286 286 286 286 287 287 286 284 284 283 285 286 285 282 281 281 281 281 281 281 280 280 279 279 278 278 278 277 276 275 275 274 273 272 271 270 268 266
288 288 287 288 287 287 287 287 287 287 287 286 284 283 283 284 284 282 281 281 280 280 279 279 278 278 277 276 275 275 274 273 273 273 272 272 271 270 270 269 268 266 264
288 287 287 287 286 287 286 283 283 284 283 282 282 282 282 281 280 280 279 279 278 277 277 276 276 275 274 273 272 271 271 270 270 270 270 269 268 268 267 267 266 265 263
287 285 285 284 284 283 283 282 280 279 280 279 279 280 279 279 278 277 278 278 277 279 278 275 273 272 271 271 270 269 267 266 266 266 266 266 266 266 266 265 264 263 262
285 285 285 284 283 283 282 281 281 279 278 278 278 278 278 277 277 276 276 276 276 276 275 274 272 270 268 267 266 265 265 265 265 264 264 264 264 264 264 264 263 262 261
283 283 283 283 282 282 281 280 280 279 278 277 275 275 274 274 273 272 275 275 274 273 272 269 268 267 266 265 264 264 264 264 264 263 263 263 263 263 263 262 262 261 261
281 280 280 280 279 278 278 278 277 276 276 275 274 273 272 271 271 271 271 270 269 268 267 266 265 265 264 263 263 263 263 263 263 262 262 262 262 261 261 261 261 260 260
278 278 277 277 277 276 276 276 275 274 274 272 271 270 268 269 268 267 267 266 265 265 264 264 264 264 263 262 262 262 262 262 262 262 262 261 261 261 261 260 260 260 260
275 275 275 275 274 273 273 272 272 272 271 270 269 268 267 267 266 266 265 264 264 264 263 263 263 263 262 262 261 261 261 262 262 261 261 261 260 260 260 260 260 260 259
272 272 271 271 271 270 270 269 269 269 268 267 266 265 265 264 264 264 263 263 263 263 262 262 262 262 262 261 261 261 261 261 261 261 261 260 260 259 259 259 259 259 259
268 268 268 267 267 266 266 266 265 264 264 264 264 263 263 263 263 263 263 263 263 262 262 262 261 261 262 261 261 261 261 261 261 261 260 260 259 259 259 259 259 259 258
266 266 265 265 265 264 264 264 263 263 263 263 263 263 263 262 262 262 262 262 262 262 262 261 261 261 261 261 261 261 260 260 260 260 260 260 259 259 258 258 259 259 258
264 264 264 263 263 263 263 263 263 263 263 262 262 262 262 262 262 262 262 261 261 262 262 262 262 261 261 262 261 261 261 261 261 260 260 259 259 259 259 258 258 258 258
Wind_Speed
40 39 38 37 37 37 40 42 43 44 43 41 38 35 33 31 28 25 23 22 19 18 16 13 12 10 9 8 6 6 8 10 10 9 13 17 19 20 24 25 27 29 30
41 39 38 37 37 38 40 42 44 45 43 41 39 36 33 31 28 25 24 22 19 18 16 15 13 11 9 8 8 9 11 12 11 14 16 17 21 23 24 28 27 30 30
39 39 37 37 38 40 40 43 45 45 43 41 39 37 35 32 29 26 22 21 19 16 15 15 14 12 11 11 11 12 12 13 13 13 15 19 23 24 28 29 30 30 29
40 39 40 40 40 40 42 45 47 46 44 42 40 37 35 32 29 27 24 21 19 17 17 16 15 14 13 13 13 14 14 15 14 16 18 22 22 24 24 26 35 30 34
39 38 40 40 39 40 43 46 47 46 45 43 40 37 34 32 30 27 25 23 19 20 19 18 16 15 15 15 16 16 17 17 17 17 19 22 23 19 17 19 24 33 31
38 36 34 36 37 39 41 44 44 43 43 42 40 37 34 32 29 26 24 22 20 23 22 20 18 18 18 19 19 18 18 19 20 19 21 19 22 20 21 21 22 18 13
37 38 39 38 38 41 41 42 44 44 42 40 38 36 34 31 28 25 24 20 25 25 24 22 21 22 21 20 20 19 21 22 22 22 25 26 24 21 24 23 17 17 23
34 38 39 39 38 39 41 43 42 42 43 41 38 36 33 30 27 22 25 19 29 27 27 25 24 24 24 23 23 24 27 27 27 26 28 32 30 25 22 21 15 26 37
32 32 35 36 34 38 38 38 39 39 39 39 38 35 33 30 26 23 24 25 31 32 30 28 27 27 26 24 24 27 30 33 29 27 25 24 23 23 19 18 25 23 24
27 30 34 36 36 35 34 35 36 37 37 35 34 32 30 28 25 25 27 27 33 35 32 32 29 29 27 26 25 28 32 36 31 29 27 25 24 25 27 25 21 21 19
27 28 30 32 31 31 32 32 33 31 30 31 30 27 28 33 27 29 29 31 34 35 36 35 33 29 28 24 21 26 32 29 29 27 30 30 26 24 24 21 19 18 19
23 25 26 26 27 28 28 27 26 27 26 26 26 26 31 31 37 36 34 33 32 35 37 36 33 29 26 24 22 24 24 24 26 27 26 27 26 25 25 22 18 18 20
23 23 24 24 23 23 24 25 25 26 26 25 26 28 33 40 35 32 33 30 30 31 33 32 28 25 22 20 20 20 21 25 26 26 28 31 31 29 24 21 20 20 21
22 22 21 21 21 21 22 24 26 27 26 23 24 25 25 34 34 28 28 28 27 27 27 24 21 17 18 17 17 17 19 22 24 25 25 27 28 28 28 24 22 20 20
20 22 22 22 23 23 23 25 27 28 29 27 26 26 26 28 28 22 20 22 23 24 24 26 25 24 24 22 21 19 18 17 18 19 21 23 25 26 27 24 19 17 16
18 17 17 18 18 19 20 17 18 17 17 19 19 19 19 18 12 12 14 14 14 12 15 16 14 11 10 9 10 11 13 16 16 17 20 24 24 21 21 19 16 16 16
15 16 16 16 17 19 19 18 14 7 9 7 5 7 8 11 9 8 8 9 13 13 12 7 8 7 9 12 15 17 19 18 18 19 20 20 20 22 19 16 16 15 15
13 12 12 13 13 15 17 18 18 18 19 15 9 9 10 10 11 10 11 13 9 9 10 10 10 12 13 14 14 15 17 17 16 15 16 17 17 18 17 16 15 15 16
11 11 10 11 10 11 13 15 16 16 19 19 18 15 14 10 10 8 11 11 12 12 12 12 12 12 12 13 13 13 13 13 13 13 14 15 14 15 17 17 15 15 13
9 9 8 8 9 10 11 12 14 15 18 17 15 14 13 12 11 9 8 9 9 9 9 9 9 10 10 11 11 11 11 11 12 13 15 14 14 15 16 16 15 15 16
10 10 9 9 9 8 8 10 11 12 14 15 13 9 6 9 8 7 6 6 6 6 7 7 8 9 10 11 11 12 14 15 15 16 15 14 13 15 15 15 15 15 16
9 9 9 9 9 9 9 8 9 9 10 10 10 8 8 6 7 7 6 6 7 8 8 10 10 11 11 12 13 15 16 16 15 14 15 14 14 14 14 14 15 15 15
8 8 9 9 8 8 8 8 8 8 9 10 10 11 10 9 8 7 8 8 9 9 10 12 12 13 13 14 14 15 17 18 16 16 17 16 15 15 15 16 16 16 15
7 7 7 7 6 6 5 6 6 6 7 7 8 8 9 9 10 10 10 10 12 12 13 14 14 15 15 15 15 16 18 18 17 17 16 17 17 16 17 17 18 17 16
6 6 6 5 4 3 3 4 4 6 7 8 9 10 11 12 13 13 13 14 14 15 14 15 16 17 18 18 18 18 18 18 19 18 17 18 18 18 19 20 19 18 16
5 4 3 1 0 2 4 6 7 9 10 11 12 13 14 15 16 16 16 16 16 16 16 16 16 17 17 18 18 18 18 19 19 18 17 16 17 18 17 18 17 17 16
Wind_Direction
206 205 206 204 204 205 205 201 194 187 184 182 181 179 177 174 172 171 168 166 167 162 160 161 163 174 180 186 199 217 226 223 232 278 286 307 314 324 331 332 334 336 337
207 205 206 205 205 205 205 201 195 190 187 185 184 183 181 179 177 177 176 175 176 172 171 175 181 185 196 208 219 229 236 238 242 270 293 307 315 323 324 330 330 332 332
204 205 206 205 206 206 205 201 195 192 190 189 188 188 186 184 182 183 184 183 184 183 186 189 190 197 207 219 230 237 243 249 256 263 288 303 312 317 326 327 328 327 330
205 204 206 207 208 207 206 201 197 195 193 193 193 193 192 189 188 186 188 190 189 193 199 201 205 213 221 228 235 245 251 254 261 270 284 298 303 314 322 325 325 326 330
205 204 207 210 209 208 205 201 198 196 196 196 196 197 196 194 193 193 195 196 197 206 210 213 217 225 233 241 246 252 253 257 261 269 282 287 295 304 309 314 316 322 324
205 205 205 208 205 204 202 200 199 198 198 198 199 199 198 200 200 200 205 205 220 217 220 222 225 235 242 251 256 259 256 257 263 266 273 272 283 292 297 310 311 313 320
203 207 207 207 203 203 202 201 201 200 200 202 202 202 203 203 204 208 216 218 236 229 230 232 234 241 246 251 255 250 247 247 258 271 274 273 278 279 298 297 297 291 295
198 204 206 205 199 201 201 201 201 201 201 201 203 205 207 207 208 217 225 238 246 240 240 241 244 249 251 254 259 261 261 261 261 259 262 272 276 285 285 283 287 302 307
195 196 195 197 192 197 196 195 197 199 201 203 206 206 209 210 211 232 223 247 250 244 245 246 248 253 255 257 261 266 271 271 273 274 272 272 275 274 265 276 291 310 307
190 192 197 197 198 196 194 195 198 203 204 205 207 211 212 216 228 234 227 244 251 253 251 253 253 256 260 261 257 263 269 276 284 288 284 274 268 266 269 269 282 291 282
194 196 196 196 194 196 195 197 199 199 203 206 209 214 228 223 241 235 230 249 245 251 255 258 260 262 266 263 256 264 269 283 285 282 282 280 275 268 263 264 284 282 274
186 185 187 189 191 191 194 196 199 202 205 208 212 231 232 233 248 241 238 251 243 248 254 261 266 271 274 270 261 262 267 272 272 270 272 272 272 271 273 279 287 288 288
174 176 179 185 192 197 196 199 197 203 200 212 225 223 233 237 251 255 252 246 237 244 258 264 271 274 271 266 265 268 272 273 274 275 278 283 287 289 284 282 284 290 291
165 170 175 182 185 191 194 200 191 202 215 212 213 223 230 243 254 256 248 243 240 242 248 252 256 258 258 266 270 270 268 270 280 287 287 288 288 286 285 283 281 290 295
166 171 176 182 186 190 198 208 213 221 222 220 223 226 231 248 254 253 244 241 241 243 248 253 257 264 272 274 276 281 287 291 294 298 298 297 294 293 290 284 279 286 288
155 166 175 179 186 192 194 193 212 225 229 233 240 243 245 248 242 229 226 232 235 226 232 250 260 266 268 273 282 292 300 304 305 301 298 298 294 290 284 282 279 284 294
151 159 169 175 179 182 187 189 166 150 169 173 196 198 196 214 186 175 183 181 199 204 206 202 216 239 267 283 292 296 299 301 298 293 297 296 295 293 288 279 283 292 299
129 140 156 167 175 182 189 191 186 169 157 147 153 150 161 146 152 157 169 198 210 217 227 244 263 277 287 293 298 301 304 304 305 306 302 303 303 293 288 287 293 296 300
117 128 140 148 154 167 175 182 187 183 174 166 162 163 144 147 146 171 207 225 236 243 250 257 266 276 284 291 298 301 299 298 305 308 305 301 298 294 292 292 295 294 291
104 112 121 135 146 156 165 173 178 184 184 185 187 188 193 197 216 229 233 235 237 242 248 258 269 281 291 292 293 297 292 286 291 302 306 303 299 296 295 296 294 292 292
106 115 122 129 138 150 165 173 178 182 185 188 192 195 217 231 234 233 242 252 257 261 268 275 280 284 285 285 284 283 282 285 290 297 298 298 298 297 296 288 286 288 288
105 112 115 122 133 140 148 158 166 174 181 187 193 188 201 216 228 246 257 263 267 272 276 278 280 280 281 281 281 285 289 291 294 295 291 291 294 295 292 286 284 281 287
106 114 119 126 135 145 156 166 180 190 198 206 211 216 229 241 255 262 266 268 271 274 275 277 279 279 280 279 280 283 286 290 294 288 287 288 288 290 289 283 280 280 284
106 110 118 128 140 149 159 175 187 197 208 219 228 238 249 257 263 265 267 267 267 269 269 272 274 277 280 281 282 282 282 285 285 283 283 283 285 287 284 280 277 279 283
95 101 108 118 131 151 173 199 221 232 238 244 249 255 261 265 269 271 271 270 269 270 272 272 274 278 280 284 285 284 282 280 281 280 277 276 278 281 280 278 278 280 278
61 64 69 79 231 248 247 250 251 252 255 259 261 263 264 266 268 271 273 272 273 275 277 277 278 279 282 283 285 284 282 281 279 278 277 277 277 277 277 278 279 278 279